Temp
26 27 28 27 28 29 28 28 26 23 26 34 34 38 37 38 39 40 42 45 45 46 47 49 51 53 56 57 58 60 62 64 64 64 65 65 66 66
26 24 26 26 27 28 28 29 29 27 25 33 34 35 36 37 39 38 40 43 44 44 44 46 46 47 48 49 51 52 56 59 61 62 63 63 64 66
24 23 23 25 26 27 28 29 29 29 26 30 33 34 35 34 36 36 39 39 41 43 43 44 43 44 44 45 46 47 48 51 57 59 61 62 63 64
24 22 22 26 26 28 27 27 28 29 28 26 29 30 32 33 34 35 35 39 40 42 42 43 43 43 43 43 44 44 45 46 49 54 57 59 61 62
25 24 24 25 26 27 27 27 28 29 29 28 26 29 30 32 31 35 34 34 39 41 41 41 41 42 42 43 43 43 43 43 44 47 51 53 55 57
27 27 27 26 27 27 28 27 28 28 28 27 27 27 28 30 31 31 33 34 33 38 39 39 39 40 41 41 42 42 42 42 42 43 47 48 49 52
26 28 28 32 33 30 28 28 28 28 28 27 26 26 27 27 26 30 31 33 33 33 35 35 36 36 38 39 41 41 41 41 41 42 44 46 47 49
25 27 28 30 30 31 30 30 30 28 26 26 27 26 27 28 28 29 30 29 28 34 34 33 36 34 36 37 40 40 40 41 41 41 41 44 46 47
26 26 28 30 29 30 29 29 29 30 28 28 26 26 27 28 29 29 29 29 28 30 33 32 34 34 36 38 40 39 39 40 40 40 40 39 40 42
27 26 26 26 29 29 27 27 27 28 29 30 28 28 29 31 30 31 30 31 31 32 33 30 32 33 36 37 40 39 39 39 39 39 40 39 39 39
28 27 27 26 29 30 27 26 26 26 30 31 31 31 31 32 32 31 28 29 27 28 31 31 30 32 34 34 37 39 38 38 38 38 39 39 39 40
27 27 28 27 28 28 26 25 24 25 26 28 29 30 31 31 32 31 30 27 28 27 31 30 30 30 30 33 35 36 36 37 37 37 37 38 39 39
25 24 25 27 27 28 28 25 25 26 26 27 28 28 29 30 30 31 32 30 28 28 30 30 28 28 30 29 32 35 35 35 35 35 36 36 37 38
22 23 24 26 26 26 25 26 26 25 26 25 25 25 26 27 29 30 30 31 30 29 31 31 28 29 28 26 28 32 34 35 35 34 35 36 35 35
24 24 25 25 24 23 25 25 23 22 21 21 21 23 25 27 30 30 31 31 31 32 33 31 29 30 29 27 29 28 30 31 33 33 34 34 34 35
22 21 21 22 21 21 21 22 22 21 21 20 21 23 26 26 27 28 27 28 27 28 32 32 31 31 29 30 31 28 29 27 30 31 32 32 34 35
21 20 19 18 18 18 19 20 20 21 19 20 20 21 23 24 27 29 29 30 27 28 28 30 30 31 30 30 27 27 26 27 28 30 31 30 31 32
20 17 16 16 16 16 16 17 18 18 19 20 20 20 21 22 24 29 30 28 26 27 28 29 28 27 28 30 33 27 26 26 26 28 29 29 28 28
17 16 15 15 15 16 16 16 16 17 19 19 18 19 20 22 24 26 27 27 26 25 27 29 28 26 22 21 28 34 26 27 26 25 26 26 26 28
17 16 15 15 15 15 15 16 16 17 17 18 18 19 20 22 25 25 25 26 26 24 25 26 26 27 27 26 24 26 32 27 26 23 23 24 27 31
17 16 16 16 15 15 15 16 16 16 17 18 18 19 22 24 25 25 26 25 26 26 23 24 26 26 26 25 21 22 26 32 31 27 27 23 25 24
15 15 16 16 15 15 15 15 15 16 17 17 18 20 23 24 24 24 23 23 22 23 22 24 27 27 26 23 21 20 25 25 31 32 32 30 26 25
13 13 14 14 14 14 14 14 14 15 16 17 17 20 22 22 24 24 22 22 21 21 22 21 23 24 24 23 20 20 23 24 24 23 25 30 32 32
MSLP
1022.07 1021.38 1020.66 1020.07 1019.38 1018.63 1017.72 1016.90 1015.87 1014.08 1012.52 1011.24 1010.84 1010.20 1010.06 1009.27 1008.65 1008.38 1007.37 1007.17 1006.07 1004.60 1004.52 1005.14 1005.79 1005.71 1006.05 1006.00 1006.25 1006.76 1007.24 1007.89 1008.55 1009.16 1009.81 1010.58 1011.36 1012.09
1022.13 1021.50 1020.77 1020.08 1019.32 1018.55 1017.66 1016.81 1015.89 1015.02 1013.52 1012.17 1011.36 1010.80 1010.49 1009.83 1009.01 1008.85 1007.98 1007.50 1007.08 1005.70 1005.41 1005.64 1005.96 1006.09 1006.61 1006.59 1006.40 1006.57 1007.02 1007.34 1007.92 1008.41 1008.87 1009.71 1010.40 1011.14
1022.19 1021.64 1020.95 1020.20 1019.35 1018.42 1017.56 1016.68 1015.73 1014.97 1013.82 1012.49 1011.86 1011.22 1010.57 1010.12 1009.43 1008.74 1008.64 1007.87 1007.82 1006.81 1006.38 1006.33 1006.62 1006.78 1006.77 1007.05 1007.23 1007.02 1006.76 1007.13 1007.36 1007.74 1008.24 1008.82 1009.50 1010.19
1022.26 1021.69 1020.98 1020.15 1019.30 1018.46 1017.56 1016.70 1015.80 1014.91 1014.01 1013.00 1012.27 1011.58 1010.88 1010.23 1009.72 1009.43 1008.82 1008.78 1008.29 1007.01 1007.29 1007.22 1007.27 1007.30 1007.22 1007.37 1007.11 1007.21 1007.20 1006.82 1007.03 1007.15 1007.47 1008.00 1008.64 1009.31
1022.38 1021.73 1020.95 1020.06 1019.05 1018.36 1017.53 1016.76 1015.88 1014.89 1014.13 1013.52 1012.80 1012.10 1011.39 1010.80 1010.04 1009.62 1008.92 1008.15 1008.78 1007.29 1007.07 1007.60 1007.57 1007.54 1007.36 1007.68 1007.77 1007.51 1007.48 1006.86 1006.52 1006.78 1006.85 1007.15 1007.82 1008.38
1022.45 1021.74 1020.90 1019.94 1018.92 1018.27 1017.44 1016.83 1015.99 1015.07 1014.37 1013.67 1013.04 1012.47 1012.05 1011.34 1010.43 1009.61 1008.96 1009.10 1007.63 1007.60 1008.14 1008.15 1008.05 1007.87 1007.75 1008.18 1008.26 1008.00 1007.79 1007.09 1006.41 1006.25 1006.24 1006.46 1006.99 1007.55
1022.56 1021.73 1020.89 1019.83 1018.96 1018.34 1017.56 1016.90 1016.22 1015.34 1014.65 1013.95 1013.21 1012.68 1012.21 1011.71 1011.29 1010.36 1009.35 1008.73 1008.27 1008.43 1008.29 1008.43 1008.44 1008.51 1008.51 1008.71 1008.82 1008.34 1007.99 1007.42 1006.48 1006.24 1005.58 1005.86 1006.24 1006.81
1022.62 1021.81 1020.94 1019.99 1019.10 1018.30 1017.68 1017.15 1016.63 1015.85 1015.26 1014.52 1013.71 1013.14 1012.56 1012.32 1011.76 1011.06 1010.39 1010.00 1009.59 1009.48 1009.41 1009.53 1009.72 1009.51 1009.83 1009.74 1009.45 1009.17 1008.53 1007.64 1006.82 1006.77 1005.76 1005.60 1005.60 1006.09
1022.74 1022.02 1021.05 1020.25 1019.35 1018.55 1017.94 1017.32 1016.89 1016.40 1015.82 1015.08 1014.43 1014.17 1013.63 1013.03 1012.32 1011.45 1010.96 1010.47 1010.65 1010.62 1010.16 1010.56 1010.74 1010.65 1011.09 1010.71 1010.39 1010.12 1009.66 1008.38 1008.16 1007.73 1006.65 1006.37 1005.94 1005.70
1023.01 1022.29 1021.49 1020.68 1019.71 1018.87 1018.33 1017.78 1017.21 1016.71 1016.10 1015.51 1014.98 1014.56 1014.08 1013.27 1012.66 1012.11 1011.97 1011.74 1011.77 1011.30 1011.12 1011.83 1011.96 1011.79 1011.74 1011.39 1011.37 1010.92 1010.73 1009.42 1008.45 1008.41 1008.08 1008.22 1007.51 1006.97
1023.26 1022.63 1021.87 1021.20 1020.26 1019.35 1018.69 1018.05 1017.63 1017.07 1016.52 1015.96 1015.39 1015.02 1014.26 1013.48 1013.04 1012.58 1012.62 1012.34 1012.27 1012.48 1012.30 1012.37 1012.87 1012.21 1011.98 1012.19 1011.85 1011.96 1011.05 1009.67 1009.57 1010.24 1010.15 1009.58 1008.76 1008.77
1023.59 1023.04 1022.38 1021.68 1020.98 1020.02 1019.31 1018.56 1017.87 1017.44 1016.86 1016.16 1015.67 1015.13 1014.57 1014.07 1013.73 1013.50 1013.35 1013.14 1013.13 1013.01 1012.89 1012.72 1012.72 1012.52 1012.62 1012.76 1012.63 1012.87 1011.30 1010.48 1011.57 1011.63 1011.52 1010.91 1010.38 1010.24
1024.19 1023.61 1022.98 1022.17 1021.56 1020.82 1020.18 1019.50 1018.87 1018.15 1017.35 1016.73 1016.25 1015.75 1015.10 1014.80 1014.51 1014.10 1013.62 1013.64 1013.21 1013.28 1013.28 1013.04 1013.08 1012.88 1012.96 1013.49 1013.83 1013.24 1011.71 1012.29 1012.62 1012.49 1012.58 1012.42 1011.54 1011.60
1025.11 1024.55 1023.85 1022.96 1022.16 1021.59 1020.81 1020.15 1019.54 1018.84 1018.03 1017.36 1016.93 1016.45 1016.08 1015.63 1015.11 1014.80 1014.52 1014.13 1014.02 1014.16 1013.81 1013.19 1013.35 1013.47 1013.63 1014.39 1014.21 1013.36 1013.28 1013.44 1013.24 1013.54 1013.45 1013.30 1013.12 1013.12
1025.96 1025.31 1024.55 1023.83 1023.16 1022.38 1021.81 1021.22 1020.46 1019.78 1019.17 1018.59 1018.16 1017.65 1017.23 1016.72 1015.95 1015.34 1014.84 1014.76 1014.56 1014.28 1013.95 1013.68 1013.74 1013.80 1013.81 1014.40 1014.31 1014.29 1014.22 1014.41 1014.33 1014.47 1014.44 1014.24 1014.19 1014.14
1026.57 1026.07 1025.48 1024.70 1024.13 1023.57 1022.78 1022.06 1021.53 1021.08 1020.57 1020.02 1019.40 1018.71 1018.02 1017.40 1016.95 1016.57 1016.26 1015.89 1015.46 1015.10 1014.68 1014.54 1014.36 1014.42 1014.79 1014.88 1014.86 1015.00 1015.09 1015.02 1015.10 1015.11 1015.07 1015.01 1014.80 1014.32
1027.19 1026.63 1026.01 1025.38 1024.90 1024.35 1023.80 1023.27 1022.65 1021.96 1021.36 1020.92 1020.30 1019.64 1019.05 1018.44 1017.75 1017.34 1016.89 1016.47 1016.34 1016.20 1016.01 1015.55 1015.31 1015.18 1015.33 1015.15 1015.39 1015.51 1015.59 1015.53 1015.63 1015.63 1015.42 1015.61 1015.54 1015.02
1027.74 1027.47 1027.18 1026.78 1026.31 1025.85 1025.25 1024.57 1023.94 1023.37 1022.82 1022.15 1021.47 1020.82 1020.10 1019.36 1018.64 1017.93 1017.57 1017.42 1017.29 1017.14 1016.86 1016.47 1016.23 1015.98 1015.98 1015.85 1015.72 1015.94 1015.92 1016.05 1016.00 1015.82 1015.50 1015.52 1015.50 1015.19
1028.68 1028.61 1028.42 1028.02 1027.57 1027.06 1026.50 1025.91 1025.21 1024.54 1023.87 1023.18 1022.61 1021.98 1021.19 1020.24 1019.48 1019.02 1018.67 1018.43 1018.22 1018.07 1017.89 1017.49 1017.13 1016.98 1016.89 1016.85 1016.58 1016.61 1016.74 1016.45 1016.26 1016.00 1015.78 1015.81 1015.85 1015.41
1029.95 1029.81 1029.47 1029.05 1028.58 1028.03 1027.41 1026.79 1026.10 1025.34 1024.67 1024.12 1023.51 1022.92 1022.08 1021.35 1020.59 1020.10 1019.79 1019.47 1019.13 1018.90 1018.61 1018.23 1017.97 1017.81 1017.64 1017.61 1017.67 1017.24 1016.87 1016.56 1016.47 1016.44 1016.38 1016.10 1015.90 1015.48
1031.19 1030.90 1030.52 1029.99 1029.42 1028.85 1028.27 1027.59 1026.94 1026.27 1025.64 1024.97 1024.35 1023.76 1022.96 1022.17 1021.67 1021.30 1020.87 1020.52 1020.18 1019.86 1019.60 1019.26 1018.92 1018.40 1018.13 1018.01 1018.35 1018.12 1017.53 1016.99 1016.90 1016.74 1016.64 1016.66 1016.44 1016.28
1032.60 1032.02 1031.52 1030.97 1030.34 1029.69 1029.04 1028.40 1027.65 1026.90 1026.30 1025.70 1025.10 1024.47 1023.77 1023.04 1022.55 1022.20 1021.90 1021.52 1021.23 1020.95 1020.64 1020.17 1019.44 1018.99 1018.96 1019.20 1019.33 1019.13 1018.56 1018.01 1017.53 1017.40 1017.33 1017.19 1017.13 1017.05
1033.75 1033.22 1032.54 1031.91 1031.24 1030.58 1029.91 1029.26 1028.64 1027.94 1027.17 1026.49 1025.81 1025.16 1024.64 1024.00 1023.57 1023.15 1022.90 1022.46 1022.12 1021.60 1021.27 1020.89 1020.46 1020.18 1020.25 1020.17 1020.07 1020.02 1019.66 1019.25 1018.77 1018.42 1018.00 1017.73 1017.58 1017.41
Wind_Speed
8 9 8 6 8 8 7 8 7 8 8 3 4 5 7 8 9 7 8 14 13 15 17 15 9 7 5 10 10 11 12 19 22 22 22 22 21 19
6 9 9 6 8 8 7 8 6 7 6 4 2 6 8 7 6 6 7 9 14 18 18 17 18 16 13 8 5 6 7 12 14 19 22 22 21 21
8 9 10 10 8 8 8 8 7 6 7 5 4 7 4 8 6 5 5 5 4 16 19 19 20 19 19 16 12 6 3 6 13 17 20 23 23 22
10 9 10 9 10 8 7 10 7 8 6 7 5 4 4 9 7 4 3 3 2 17 19 21 20 20 20 18 18 16 11 3 10 15 19 21 23 23
9 10 11 12 9 7 8 8 8 8 6 4 3 3 2 6 7 3 3 4 1 16 18 20 22 22 22 22 21 19 17 12 5 14 18 20 20 22
10 11 12 12 10 9 8 8 9 8 7 5 4 3 2 4 5 5 4 1 6 8 13 16 18 22 24 21 22 21 19 18 14 9 17 19 21 21
11 11 12 16 21 15 8 8 9 8 6 5 5 4 5 4 6 5 3 4 9 7 8 9 9 9 12 16 17 23 22 21 21 16 9 19 21 21
10 11 11 15 15 18 18 16 12 9 8 6 6 7 7 7 6 5 3 2 3 6 5 9 8 9 9 9 21 21 22 23 25 22 19 9 19 20
9 11 10 10 13 11 15 14 13 15 11 7 8 6 6 8 7 7 7 5 4 5 2 8 6 8 6 9 20 21 21 24 24 24 25 20 6 10
10 12 11 13 14 14 12 9 9 9 9 7 7 7 7 8 7 5 3 3 2 6 5 5 5 6 5 6 19 20 20 22 25 25 25 22 21 18
10 12 13 12 23 23 13 12 10 10 11 14 14 15 16 18 14 5 6 3 3 4 7 2 2 3 6 7 7 15 18 24 25 23 21 21 21 16
9 12 20 18 22 23 12 11 11 11 10 10 10 11 12 12 16 8 5 5 2 2 4 3 3 2 3 4 7 5 6 19 20 21 21 21 20 8
10 10 10 23 22 23 20 12 12 11 11 8 7 7 9 9 8 8 8 5 5 5 5 1 3 2 3 3 2 5 8 7 6 8 15 19 21 16
10 9 10 22 22 21 16 23 21 12 9 8 8 8 8 9 9 7 8 6 5 4 5 4 3 2 2 2 2 5 7 7 6 6 6 9 13 17
9 15 20 21 20 15 22 22 14 10 9 8 8 7 8 7 8 6 9 7 5 6 8 6 4 4 4 2 2 3 3 5 5 4 4 5 3 2
11 9 10 12 12 10 11 12 9 9 8 8 7 7 8 8 7 6 6 6 5 6 9 9 7 4 4 4 4 3 4 3 4 4 2 3 3 4
8 7 9 10 11 11 10 11 10 10 11 9 9 9 9 8 8 7 7 7 8 8 8 6 6 6 5 4 4 4 3 3 3 3 3 1 2 3
8 9 10 9 10 10 10 10 10 11 10 9 8 8 8 8 7 7 6 7 6 7 8 5 5 4 4 5 9 4 3 3 2 3 3 2 1 1
10 9 9 9 9 9 9 8 9 9 9 8 8 8 8 8 8 7 7 6 7 6 6 5 5 4 3 3 3 8 2 2 3 3 3 2 1 3
10 9 9 9 9 9 9 9 9 9 9 8 8 8 8 7 7 8 7 8 8 6 6 6 6 5 5 3 2 3 10 3 3 2 3 2 2 6
9 9 9 9 9 9 8 8 9 8 8 8 8 8 8 7 7 7 8 10 10 7 8 7 7 6 2 2 5 4 4 13 7 3 3 2 3 4
9 9 9 9 9 9 9 8 9 9 9 8 8 7 7 7 7 8 8 7 6 5 5 4 7 7 6 5 4 4 5 6 9 9 13 8 2 4
9 9 9 9 9 9 9 9 8 8 8 8 8 8 7 7 7 7 7 7 7 7 7 7 6 6 7 6 4 5 9 9 6 7 7 16 12 11
Wind_Direction
319 323 314 324 319 314 316 314 307 320 325 339 309 3 335 321 329 337 346 23 31 62 69 77 85 80 209 174 170 179 183 201 198 196 195 200 207 216
336 330 325 323 318 316 319 314 314 308 288 323 318 319 321 325 330 336 341 355 39 61 73 72 71 67 56 40 119 146 201 193 198 198 191 196 199 205
337 341 326 324 317 319 322 319 311 316 310 310 309 312 308 341 334 354 337 354 21 70 70 72 67 66 61 55 41 39 135 246 210 197 198 196 198 201
338 335 324 325 314 320 322 323 322 322 322 317 308 321 304 332 329 340 352 341 7 62 68 71 68 63 59 54 48 32 14 6 247 216 198 197 197 199
333 331 323 320 317 333 325 324 323 327 331 320 318 316 302 326 333 263 36 1 209 70 63 62 59 58 55 48 44 42 22 15 314 234 207 195 195 194
324 334 326 317 339 340 333 328 325 333 328 333 340 339 323 308 327 318 25 15 41 52 57 59 56 51 47 42 40 36 33 23 14 266 214 201 193 193
332 332 330 346 351 356 343 343 334 350 337 336 350 347 355 356 346 311 329 352 42 21 50 40 41 40 37 32 30 30 31 27 29 12 238 206 197 195
331 331 330 347 348 356 353 356 359 5 352 350 1 1 356 352 339 335 339 311 36 7 42 48 37 45 36 34 30 26 26 31 34 26 24 236 202 197
348 341 350 345 350 358 354 352 360 3 3 353 4 4 349 350 338 345 17 28 29 344 5 47 15 52 27 39 38 34 28 35 31 31 35 33 79 141
356 349 1 346 1 7 0 358 359 0 1 3 9 356 355 357 2 355 345 14 25 25 4 67 1 54 36 34 40 40 37 39 37 24 29 31 48 76
2 353 6 2 3 10 1 3 8 3 358 11 21 16 17 22 26 24 25 7 33 17 12 83 343 46 47 31 26 38 43 47 43 34 25 26 31 35
1 2 4 11 7 11 6 1 6 357 353 1 8 7 13 17 23 30 23 46 15 29 1 66 351 22 62 10 28 354 36 49 46 44 35 33 32 35
4 1 357 8 12 9 14 11 10 353 357 5 11 9 15 15 15 16 24 36 40 45 340 69 16 12 63 74 343 1 40 39 49 39 35 41 43 36
6 1 356 9 10 11 13 15 11 3 2 7 11 14 10 6 1 3 11 19 37 48 345 29 66 30 80 75 332 2 39 34 45 39 39 41 53 50
4 9 9 10 8 4 12 15 8 7 5 11 8 5 360 351 359 7 16 10 11 21 19 21 43 28 62 69 65 24 28 26 32 31 29 32 51 74
356 354 353 2 11 9 6 8 8 7 6 5 1 356 0 10 14 8 12 3 15 13 17 24 32 48 52 45 62 57 30 54 359 14 21 38 16 26
354 6 12 13 11 9 8 8 5 5 8 0 4 3 7 7 9 15 22 36 47 35 27 7 17 43 42 58 52 32 17 40 15 353 42 60 44 39
19 22 15 11 11 5 3 1 3 3 359 357 3 3 2 1 358 19 25 31 29 24 37 0 7 17 12 25 59 15 13 3 333 344 27 63 349 355
30 20 16 9 3 1 0 358 355 354 349 2 3 359 356 354 360 19 18 19 24 22 23 0 14 33 42 42 323 48 13 338 331 2 11 30 325 313
26 15 9 4 1 358 355 355 351 353 358 357 1 359 356 351 8 14 19 25 30 13 17 18 20 16 48 25 352 304 358 342 12 344 351 327 279 318
12 12 5 1 358 354 352 350 349 351 353 355 360 358 354 1 11 15 11 22 31 29 27 15 355 334 298 22 26 347 333 11 25 9 333 26 15 355
6 5 2 359 356 353 351 351 350 356 358 358 356 1 1 3 11 14 17 18 11 12 11 356 10 21 38 44 32 353 2 344 14 43 46 39 30 16
1 358 357 356 355 353 352 353 353 349 352 352 351 4 8 12 10 13 15 20 16 17 14 12 17 25 31 30 26 13 15 17 359 1 5 5 15 19